Location: Bothwell
(42.3833°S, 147.0000°E)
Time: 19:54:38
(UTC+11:00)

AO-85 - Pass Details

Date: 29 September 2022
Orbit: 513 x 757 km, 64.8° (Epoch: 24 November)

Event Time Altitude Azimuth Distance (km) Brightness Sun altitude
Rises 04:58:10 0° 209° (SSW) 3,089 ? -10.3°
Reaches altitude 10° 05:00:36 10° 201° (SSW) 2,203 ? -9.8°
Maximum altitude 05:05:25 41° 130° (SE) 1,063 ? -9.0°
Drops below altitude 10° 05:10:22 10° 60° (ENE) 2,280 ? -8.1°
Sets 05:12:55 0° 52° (NE) 3,210 ? -7.6°
